Location: Ciserano
(45.5833°N, 9.6000°E)
Time: 04:38:51
(UTC+00:00)

Cosmos 2327 Rocket - Pass Details

Date: 29 November 2020
Orbit: 945 x 1007 km, 83.0° (Epoch: 24 January)

Event Time Altitude Azimuth Distance (km) Brightness Sun altitude
Rises 05:26:36 0° 196° (SSW) 3,614 7.5 -12.4°
Reaches altitude 10° 05:29:07 10° 199° (SSW) 2,667 6.8 -12.0°
Maximum altitude 05:35:09 64° 281° (W) 1,042 4.4 -11.0°
Drops below altitude 10° 05:41:13 10° 3° (N) 2,676 6.6 -10.0°
Sets 05:43:45 0° 6° (N) 3,627 7.3 -9.6°
